Location: Malvern Link
(52.1333°N, 2.3000°W)
Time: 15:24:07
(UTC+00:00)

SO-50 - Pass Details

Date: 03 July 2022
Orbit: 585 x 698 km, 64.6° (Epoch: 11 August)

Event Time Altitude Azimuth Distance (km) Brightness Sun altitude
Exits shadow 23:54:34 24° 188° (S) 1,367 ? -14.9°
Maximum altitude 23:57:08 49° 124° (SE) 863 ? -14.9°
Drops below altitude 10° 00:01:49 10° 50° (NE) 2,139 ? -14.9°
Sets 00:04:15 0° 46° (NE) 3,071 ? -14.9°
